DELTA 1 DEB, 7064

Orbit data source: Space-Track

DELTA 1 DEB, 7064 is space debris in SSO originally from a launch on Tue, 06 Nov 1973 UTC launched from the Air Force Western Test Range (AFWTR). Debris objects in space refer to the collection of defunct objects orbiting the Earth. Examples of debris include non-operational satellites, rocket bodies, and fragments generated from explosions, collisions, or faulty payload assembly.

Loading next visibility...
Identifier
7064, 1973-086BG
Orbit
SSO
Country
Flag of USUS
Related business
Manufacturer
Unknown
Mission
Spacecraft
Bus & Motor
Unknown
Mass
Unknown
Launch date (UTC)
1973-11-06 (53 years ago)
Launch vehicle
Unknown
Launch site
Air Force Western Test Range (AFWTR)
Object type
Payload
Rocket body
Debris
Shape & HBR
Unknown shape, 0.1 m
Radar Cross Section
Medium (>0.1 m² and <1 m²)

Expand to show TLE details & history
Last TLE update: 14 hours ago

TLE from 14 hours ago
0 DELTA 1 DEB
1 07064U 73086BG  26254.39437630  .00000008  00000-0  24009-3 0  9991
2 07064 101.6566 115.2936 0181611 179.0371 357.4964 12.75488275457145
Epoch: 2026-09-11T09:27Z
TLE epoch observation values (Epoch: 2026-09-11T09:27:54.112Z)
Latitude
3.39829°
Longitude
163.59812°
Altitude
1,221.489 km
Speed
7.309 km/s
True Right ascension
19h 43m 58s
True Declination
3° 22' 45"
Sunlit
Object was in full shadow at epoch
Visualization orbit readout
Latitude
Unknown
Longitude
Unknown
Altitude
Unknown
Speed
Unknown
Apparent Right ascension
Unknown
Apparent Declination
Unknown
Sunlit
N/A
Visualization observer readout
Local Sidereal Time
15:36:44
Azimuth
Unknown
Elevation
Unknown
Doppler factor
Unknown
Orbital elements
Apogee altitude
1,497.652 km
Perigee altitude
1,216.689 km
Semi-major axis
7,735.307 km
Eccentricity
0.01816
Inclination
101.6566°
RAAN
115.2936°
Arg. of periapsis
179.0371°
True anomaly
357.40339°
Mean anomaly
357.4964°
Eccentric anomaly
357.45011°
Mean motion
3.19027 °/min
Orbital period
112.84 mins
BSTAR
0.00024009
Loading maneuver chart data...
Computing Atmospheric mass density...
Loading historical data...
Loading historical data...
Loading historical data...
Loading historical data...
Loading historical data...
Loading historical data...
Loading historical data...

Documentation

Showing up to 5 results
|